Regional Weather Roundup
Issued by NWS

Home | Current Version | Previous Version | Graphics & Text | Print | Product List | Glossary On
Versions: 1 2 3 4 5 6 7 8 9 10 11 12 13 14 15 16 17 18 19 20 21 22 23 24 25 26 27 28 29 30 31 32 33 34 35 36 37 38 39 40 41 42 43 44 45 46 47 48 49 50
630
ASUS43 KIND 041559
RWRIN

WEATHER ROUNDUP FOR INDIANA
NATIONAL WEATHER SERVICE INDIANAPOLIS IN
1100 AM EST SUN DEC 04 2016

NOTE: "FAIR" INDICATES FEW OR NO CLOUDS BELOW 12,000 FEET WITH NO
SIGNIFICANT WEATHER AND/OR OBSTRUCTIONS TO VISIBILITY.

* - STATION DOES NOT REPORT WEATHER SUCH AS PRECIPITATION OR FOG.

+ - STATION NOT QUALITY CONTROLLED BY THE NATIONAL WEATHER SERVICE.
    USE DATA WITH CAUTION...ESPECIALLY DEWPOINT AND RELATIVE
    HUMIDITY OBSERVATIONS.

INZ001>003-010>013-019-020-041700-
NORTHWEST INDIANA

CITY           SKY/WX    TMP DP  RH WIND       PRES   REMARKS
GARY /AIRPORT/ CLOUDY    36  28  75 SE6       30.12F

$$

LMZ046-743>745-041700-
SOUTHERN LAKE MICHIGAN

STATION/POSITION TIME  TEMP    WIND        PRES    WAVE
                       AIR SEA DIR/SP/G            HT
                 (UTC) (F)     (DEG/KT/KT) (MB)    (FT)
BURNS HARBOR     1540   34     110/  9/ 12 1020.0F

$$

INZ004-005-014>016-021>024-041700-
NORTH CENTRAL INDIANA

CITY           SKY/WX    TMP DP  RH WIND       PRES   REMARKS
GOSHEN         CLOUDY    36  27  69 E9        30.12F
SOUTH BEND     CLOUDY    33  27  78 E8        30.13F WCI  26

$$

INZ006>009-017-018-025>027-041700-
NORTHEAST INDIANA

CITY           SKY/WX    TMP DP  RH WIND       PRES   REMARKS
ANGOLA *+      PTSUNNY   34  28  80 SE7       30.14F WCI  28
FORT WAYNE     CLOUDY    36  29  75 SE9       30.14F
KENDALLVILLE + CLOUDY    35  29  76 SE8       30.14F WCI  29

$$

INZ028-029-035-036-043>045-051>053-041700-
WEST CENTRAL INDIANA

CITY           SKY/WX    TMP DP  RH WIND       PRES   REMARKS
CRAWFORDSVL +  CLOUDY    35  32  88 E8        30.05F WCI  29
GREENCASTLE +  CLOUDY    37  34  87 SE10      30.05F
LAFAYETTE      CLOUDY    36  31  82 E10       30.08F
TERRE HAUTE    CLOUDY    39  32  76 E7        30.04F

$$

INZ030>032-037>040-046>048-054>057-064-065-041700-
CENTRAL INDIANA

CITY           SKY/WX    TMP DP  RH WIND       PRES   REMARKS
COLUMBUS       CLOUDY    39  34  81 E10       30.09F
GREENWOOD *+   CLOUDY    39  32  77 E7        30.09F
INDIANAPOLIS   CLOUDY    39  31  72 E12       30.06F
-EAGLE CREEK   CLOUDY    40  31  70 SE10      30.06F
KOKOMO +       CLOUDY    36  32  85 E12       30.10F
SHELBYVILLE    CLOUDY    39  31  72 E13       30.08F

$$

INZ033-034-041-042-049-050-058-059-041700-
EAST CENTRAL INDIANA

CITY           SKY/WX    TMP DP  RH WIND       PRES   REMARKS
MUNCIE         CLOUDY    39  30  70 SE9       30.10F

$$

INZ060-061-067>069-081>083-085>088-041700-
SOUTHWEST INDIANA

CITY           SKY/WX    TMP DP  RH WIND       PRES   REMARKS
EVANSVILLE     CLOUDY    42  37  82 SE8       30.04F
HUNTINGBURG *+ CLOUDY    43  37  81 SE13      30.04F

$$

INZ062-063-066-070>080-084-089>092-041700-
SOUTH CENTRAL AND SOUTHEAST INDIANA

CITY           SKY/WX    TMP DP  RH WIND       PRES   REMARKS
BLOOMINGTON    CLOUDY    39  31  72 SE10      30.03F
MADISON *+     CLOUDY    41  32  70 E9        30.10F
SEYMOUR +      CLOUDY    43  32  65 E9        30.07F

$$





USA.gov is the U.S. government's official web portal to all federal, state and local government web resources and services.